Time,TemperatureF,DewpointF,PressureIn,WindDirection,WindDirectionDegrees,WindSpeedMPH,WindSpeedGustMPH,Humidity,HourlyPrecipIn,Conditions,Clouds,dailyrainin,SolarRadiationWatts/m^2,SoftwareType,DateUTC
2013-02-23 00:00:00,19.9,16.9,29.59,ESE,113,3.0,6.0,88,0.00,,OVC200,0.03,0.00,VWS V14.01,2013-02-23 06:00:00,
2013-02-23 00:05:00,19.9,16.9,29.59,ESE,116,2.0,2.0,88,0.00,,OVC200,0.00,0.00,VWS V14.01,2013-02-23 06:05:00,
2013-02-23 00:10:00,19.9,16.9,29.59,ESE,115,1.0,5.0,88,0.00,,OVC200,0.00,0.00,VWS V14.01,2013-02-23 06:10:00,
2013-02-23 00:15:00,19.9,16.9,29.59,ESE,115,0.0,5.0,88,0.00,,OVC200,0.00,0.00,VWS V14.01,2013-02-23 06:15:00,
2013-02-23 00:17:00,19.9,17.2,29.59,ESE,115,0.0,5.0,89,0.00,,OVC200,0.00,0.00,VWS V14.01,2013-02-23 06:17:00,
2013-02-23 00:22:00,19.9,17.2,29.59,ESE,104,2.0,5.0,89,0.00,,OVC200,0.00,0.00,VWS V14.01,2013-02-23 06:22:00,
2013-02-23 00:27:00,20.0,17.3,29.59,East,101,2.0,5.0,89,0.00,,OVC200,0.00,0.00,VWS V14.01,2013-02-23 06:27:00,
2013-02-23 00:30:00,19.9,16.9,29.58,East,98,0.0,5.0,88,0.00,,OVC075,0.00,0.00,VWS V15.00,2013-02-23 06:30:00,
2013-02-23 00:32:00,19.9,16.9,29.59,East,94,2.0,5.0,88,0.00,,OVC200,0.00,0.00,VWS V14.01,2013-02-23 06:32:00,
2013-02-23 00:37:00,19.9,16.9,29.58,East,96,2.0,3.0,88,0.00,,OVC200,0.00,0.00,VWS V14.01,2013-02-23 06:37:00,
2013-02-23 00:42:00,19.9,16.9,29.58,East,86,1.0,5.0,88,0.00,,OVC200,0.00,0.00,VWS V14.01,2013-02-23 06:42:00,
2013-02-23 00:47:00,19.9,16.9,29.58,East,85,2.0,5.0,88,0.00,,OVC200,0.00,0.00,VWS V14.01,2013-02-23 06:47:00,
2013-02-23 00:52:00,19.7,16.7,29.58,East,91,0.0,6.0,88,0.00,,OVC200,0.00,0.00,VWS V14.01,2013-02-23 06:52:00,
2013-02-23 00:57:00,19.7,16.7,29.58,ENE,77,2.0,6.0,88,0.00,,OVC200,0.00,0.00,VWS V14.01,2013-02-23 06:57:00,
2013-02-23 01:00:00,19.5,16.5,29.57,ENE,67,0.0,6.0,88,0.00,,OVC075,0.00,0.00,VWS V15.00,2013-02-23 07:00:00,
2013-02-23 01:02:00,19.5,16.5,29.58,ENE,58,2.0,6.0,88,0.00,,OVC200,0.00,0.00,VWS V14.01,2013-02-23 07:02:00,
2013-02-23 01:07:00,19.5,16.5,29.57,ENE,66,1.0,4.0,88,0.00,,OVC200,0.00,0.00,VWS V14.01,2013-02-23 07:07:00,
2013-02-23 01:12:00,19.5,16.5,29.57,ENE,68,2.0,4.0,88,0.00,,OVC200,0.00,0.00,VWS V14.01,2013-02-23 07:12:00,
2013-02-23 01:17:00,19.5,16.5,29.57,ENE,68,1.0,4.0,88,0.00,,OVC200,0.00,0.00,VWS V14.01,2013-02-23 07:17:00,
2013-02-23 01:22:00,19.4,16.7,29.57,ENE,72,2.0,5.0,89,0.00,,OVC200,0.00,0.00,VWS V14.01,2013-02-23 07:22:00,
2013-02-23 01:27:00,19.4,16.7,29.57,ENE,78,3.0,5.0,89,0.00,,OVC200,0.00,0.00,VWS V14.01,2013-02-23 07:27:00,
2013-02-23 01:30:00,19.5,16.8,29.57,East,94,5.0,6.0,89,0.00,,OVC075,0.00,0.00,VWS V15.00,2013-02-23 07:30:00,
2013-02-23 01:32:00,19.5,16.8,29.57,East,93,2.0,6.0,89,0.00,,OVC200,0.00,0.00,VWS V14.01,2013-02-23 07:32:00,
2013-02-23 01:37:00,19.5,16.8,29.57,East,95,1.0,5.0,89,0.00,,OVC200,0.00,0.00,VWS V14.01,2013-02-23 07:37:00,
2013-02-23 01:42:00,19.5,16.8,29.57,ESE,102,3.0,6.0,89,0.00,,OVC200,0.00,0.00,VWS V14.01,2013-02-23 07:42:00,
2013-02-23 01:47:00,19.5,16.8,29.57,ESE,109,2.0,6.0,89,0.00,,OVC200,0.00,0.00,VWS V14.01,2013-02-23 07:47:00,
2013-02-23 01:52:00,19.5,16.8,29.57,ESE,113,1.0,6.0,89,0.00,,OVC200,0.00,0.00,VWS V14.01,2013-02-23 07:52:00,
2013-02-23 01:57:00,19.4,16.7,29.57,ESE,115,1.0,6.0,89,0.00,,OVC200,0.00,0.00,VWS V14.01,2013-02-23 07:57:00,
2013-02-23 02:00:00,19.4,16.4,29.58,ESE,112,3.0,6.0,88,0.00,,OVC075,0.00,0.00,VWS V15.00,2013-02-23 08:00:00,
2013-02-23 02:02:00,19.4,16.4,29.57,ESE,111,3.0,6.0,88,0.00,,OVC200,0.00,0.00,VWS V14.01,2013-02-23 08:02:00,
2013-02-23 02:07:00,19.4,16.4,29.58,ESE,112,0.0,4.0,88,0.00,,OVC200,0.00,0.00,VWS V14.01,2013-02-23 08:07:00,
2013-02-23 02:12:00,19.4,16.4,29.58,ESE,113,2.0,5.0,88,0.00,,OVC200,0.00,0.00,VWS V14.01,2013-02-23 08:12:00,
2013-02-23 02:13:00,19.4,16.4,29.58,ESE,113,2.0,5.0,88,0.00,,OVC200,0.00,0.00,VWS V14.01,2013-02-23 08:13:00,
2013-02-23 02:18:00,19.5,16.5,29.58,ESE,121,6.0,7.0,88,0.00,,OVC200,0.00,0.00,VWS V14.01,2013-02-23 08:18:00,
2013-02-23 02:23:00,19.5,16.5,29.58,ESE,119,2.0,7.0,88,0.00,,OVC200,0.00,0.00,VWS V14.01,2013-02-23 08:23:00,
2013-02-23 02:28:00,19.4,16.4,29.58,ESE,118,2.0,7.0,88,0.00,,OVC200,0.00,0.00,VWS V14.01,2013-02-23 08:28:00,
2013-02-23 02:30:00,19.4,16.4,29.57,ESE,119,1.0,7.0,88,0.00,,OVC075,0.00,0.00,VWS V15.00,2013-02-23 08:30:00,
2013-02-23 02:33:00,19.4,16.4,29.58,ESE,119,1.0,7.0,88,0.00,,OVC200,0.00,0.00,VWS V14.01,2013-02-23 08:33:00,
2013-02-23 02:38:00,19.4,16.4,29.57,ESE,119,0.0,4.0,88,0.00,,OVC200,0.00,0.00,VWS V14.01,2013-02-23 08:38:00,
2013-02-23 02:43:00,19.2,16.2,29.57,ESE,119,0.0,5.0,88,0.00,,OVC200,0.00,0.00,VWS V14.01,2013-02-23 08:43:00,
2013-02-23 02:48:00,19.1,16.1,29.57,ESE,118,3.0,5.0,88,0.00,,OVC200,0.00,0.00,VWS V14.01,2013-02-23 08:48:00,
2013-02-23 02:53:00,18.9,15.7,29.57,ESE,118,1.0,5.0,87,0.00,,OVC200,0.00,0.00,VWS V14.01,2013-02-23 08:53:00,
2013-02-23 02:58:00,18.9,15.7,29.57,ESE,119,0.0,6.0,87,0.00,,OVC200,0.00,0.00,VWS V14.01,2013-02-23 08:58:00,
2013-02-23 03:00:00,18.8,15.6,29.57,ESE,119,3.0,6.0,87,0.00,,OVC075,0.00,0.00,VWS V15.00,2013-02-23 09:00:00,
2013-02-23 03:03:00,18.8,15.6,29.57,ESE,119,3.0,6.0,87,0.00,,OVC200,0.00,0.00,VWS V14.01,2013-02-23 09:03:00,
2013-02-23 03:08:00,18.6,15.4,29.57,ESE,121,4.0,6.0,87,0.00,,OVC200,0.00,0.00,VWS V14.01,2013-02-23 09:08:00,
2013-02-23 03:13:00,18.6,15.4,29.57,ESE,122,3.0,6.0,87,0.00,,OVC200,0.00,0.00,VWS V14.01,2013-02-23 09:13:00,
2013-02-23 03:18:00,18.4,15.2,29.57,ESE,123,2.0,6.0,87,0.00,,OVC200,0.00,0.00,VWS V14.01,2013-02-23 09:18:00,
2013-02-23 03:23:00,18.4,15.2,29.57,ESE,123,3.0,6.0,87,0.00,,OVC200,0.00,0.00,VWS V14.01,2013-02-23 09:23:00,
2013-02-23 03:28:00,18.3,15.1,29.57,ESE,105,3.0,6.0,87,0.00,,OVC200,0.00,0.00,VWS V14.01,2013-02-23 09:28:00,
2013-02-23 03:30:00,18.3,15.1,29.57,ESE,110,1.0,6.0,87,0.00,,OVC075,0.00,0.00,VWS V15.00,2013-02-23 09:30:00,
2013-02-23 03:33:00,18.3,15.1,29.57,ESE,110,4.0,6.0,87,0.00,,OVC200,0.00,0.00,VWS V14.01,2013-02-23 09:33:00,
2013-02-23 03:38:00,18.1,14.9,29.57,ESE,113,2.0,7.0,87,0.00,,OVC200,0.00,0.00,VWS V14.01,2013-02-23 09:38:00,
2013-02-23 03:43:00,18.1,14.9,29.57,ESE,115,4.0,7.0,87,0.00,,OVC200,0.00,0.00,VWS V14.01,2013-02-23 09:43:00,
2013-02-23 03:48:00,18.0,14.8,29.57,ESE,113,2.0,7.0,87,0.00,,OVC200,0.00,0.00,VWS V14.01,2013-02-23 09:48:00,
2013-02-23 03:53:00,18.0,14.8,29.57,ESE,109,6.0,7.0,87,0.00,,OVC200,0.00,0.00,VWS V14.01,2013-02-23 09:53:00,
2013-02-23 03:58:00,18.1,14.9,29.57,ESE,112,1.0,7.0,87,0.00,,OVC200,0.00,0.00,VWS V14.01,2013-02-23 09:58:00,
2013-02-23 04:00:00,18.0,14.5,29.57,ESE,116,3.0,7.0,86,0.00,,OVC075,0.00,0.00,VWS V15.00,2013-02-23 10:00:00,
2013-02-23 04:03:00,18.0,14.8,29.57,ESE,115,3.0,7.0,87,0.00,,OVC200,0.00,0.00,VWS V14.01,2013-02-23 10:03:00,
2013-02-23 04:08:00,18.0,14.5,29.57,East,95,0.0,6.0,86,0.00,,OVC200,0.00,0.00,VWS V14.01,2013-02-23 10:08:00,
2013-02-23 04:13:00,18.0,14.5,29.57,ESE,109,2.0,7.0,86,0.00,,OVC200,0.00,0.00,VWS V14.01,2013-02-23 10:13:00,
2013-02-23 04:18:00,18.0,14.5,29.57,ESE,123,4.0,7.0,86,0.00,,OVC200,0.00,0.00,VWS V14.01,2013-02-23 10:18:00,
2013-02-23 04:23:00,18.0,14.5,29.57,East,81,5.0,9.0,86,0.00,,OVC200,0.00,0.00,VWS V14.01,2013-02-23 10:23:00,
2013-02-23 04:28:00,17.8,14.3,29.57,ESE,112,5.0,9.0,86,0.00,,OVC200,0.00,0.00,VWS V14.01,2013-02-23 10:28:00,
2013-02-23 04:30:00,17.8,14.3,29.57,ESE,106,3.0,9.0,86,0.00,,OVC075,0.00,0.00,VWS V15.00,2013-02-23 10:30:00,
2013-02-23 04:33:00,17.8,14.3,29.57,ESE,121,1.0,9.0,86,0.00,,OVC200,0.00,0.00,VWS V14.01,2013-02-23 10:33:00,
2013-02-23 04:34:00,17.8,14.3,29.57,ESE,106,3.0,9.0,86,0.00,,OVC200,0.00,0.00,VWS V14.01,2013-02-23 10:34:00,
2013-02-23 04:39:00,17.8,14.3,29.57,SE,128,4.0,8.0,86,0.00,,OVC200,0.00,0.00,VWS V14.01,2013-02-23 10:39:00,
2013-02-23 04:44:00,17.7,14.2,29.57,SE,125,3.0,8.0,86,0.00,,OVC200,0.00,0.00,VWS V14.01,2013-02-23 10:44:00,
2013-02-23 04:49:00,17.7,14.2,29.57,SE,124,2.0,9.0,86,0.00,,OVC200,0.00,0.00,VWS V14.01,2013-02-23 10:49:00,
2013-02-23 04:54:00,17.8,14.3,29.57,ESE,122,2.0,9.0,86,0.00,,OVC200,0.00,0.00,VWS V14.01,2013-02-23 10:54:00,
2013-02-23 04:59:00,17.8,14.3,29.57,East,86,4.0,9.0,86,0.00,,OVC200,0.00,0.00,VWS V14.01,2013-02-23 10:59:00,
2013-02-23 05:00:00,17.8,14.3,29.57,East,100,4.0,9.0,86,0.00,,OVC075,0.00,0.00,VWS V15.00,2013-02-23 11:00:00,
2013-02-23 05:04:00,17.8,14.3,29.57,East,100,4.0,9.0,86,0.00,,OVC200,0.00,0.00,VWS V14.01,2013-02-23 11:04:00,
2013-02-23 05:09:00,17.8,14.3,29.57,East,101,1.0,5.0,86,0.00,,OVC200,0.00,0.00,VWS V14.01,2013-02-23 11:09:00,
2013-02-23 05:14:00,17.8,14.3,29.57,ESE,117,2.0,6.0,86,0.00,,OVC200,0.00,0.00,VWS V14.01,2013-02-23 11:14:00,
2013-02-23 05:19:00,17.8,14.3,29.57,East,92,5.0,6.0,86,0.00,,OVC200,0.00,0.00,VWS V14.01,2013-02-23 11:19:00,
2013-02-23 05:24:00,18.0,14.5,29.57,ESE,121,5.0,9.0,86,0.00,,OVC200,0.00,0.00,VWS V14.01,2013-02-23 11:24:00,
2013-02-23 05:29:00,18.0,14.5,29.57,SE,143,4.0,11.0,86,0.00,,OVC200,0.00,0.00,VWS V14.01,2013-02-23 11:29:00,
2013-02-23 05:30:00,18.0,14.5,29.57,ESE,105,4.0,11.0,86,0.00,,OVC075,0.00,0.00,VWS V15.00,2013-02-23 11:30:00,
2013-02-23 05:34:00,18.0,14.5,29.57,ESE,105,4.0,11.0,86,0.00,,OVC200,0.00,0.00,VWS V14.01,2013-02-23 11:34:00,
2013-02-23 05:39:00,18.1,14.6,29.57,ESE,120,6.0,6.0,86,0.00,,OVC200,0.00,0.00,VWS V14.01,2013-02-23 11:39:00,
2013-02-23 05:44:00,18.1,14.6,29.57,ESE,107,4.0,6.0,86,0.00,,OVC200,0.00,0.00,VWS V14.01,2013-02-23 11:44:00,
2013-02-23 05:49:00,18.1,14.6,29.57,ESE,117,2.0,6.0,86,0.00,,OVC200,0.00,0.00,VWS V14.01,2013-02-23 11:49:00,
2013-02-23 05:54:00,18.1,14.6,29.57,ESE,121,3.0,6.0,86,0.00,,OVC200,0.00,0.00,VWS V14.01,2013-02-23 11:54:00,
2013-02-23 05:59:00,18.1,14.6,29.57,ESE,122,1.0,6.0,86,0.00,,OVC200,0.00,0.00,VWS V14.01,2013-02-23 11:59:00,
2013-02-23 06:00:00,18.3,14.8,29.57,SE,128,3.0,6.0,86,0.00,,OVC075,0.00,0.00,VWS V15.00,2013-02-23 12:00:00,
2013-02-23 06:04:00,18.3,14.8,29.57,SE,128,3.0,6.0,86,0.00,,OVC200,0.00,0.00,VWS V14.01,2013-02-23 12:04:00,
2013-02-23 06:09:00,18.3,14.8,29.57,SE,128,1.0,5.0,86,0.00,,OVC200,0.00,0.00,VWS V14.01,2013-02-23 12:09:00,
2013-02-23 06:14:00,18.3,14.8,29.57,ESE,121,3.0,6.0,86,0.00,,OVC200,0.00,0.00,VWS V14.01,2013-02-23 12:14:00,
2013-02-23 06:19:00,18.3,14.8,29.57,ESE,122,2.0,6.0,86,0.00,,OVC200,0.00,0.00,VWS V14.01,2013-02-23 12:19:00,
2013-02-23 06:24:00,18.1,14.6,29.57,East,101,3.0,6.0,86,0.00,,OVC200,0.00,0.00,VWS V14.01,2013-02-23 12:24:00,
2013-02-23 06:29:00,18.1,14.6,29.57,ESE,102,2.0,6.0,86,0.00,,OVC200,0.00,0.00,VWS V14.01,2013-02-23 12:29:00,
2013-02-23 06:30:00,18.0,14.5,29.57,East,96,2.0,6.0,86,0.00,,OVC075,0.00,0.00,VWS V15.00,2013-02-23 12:30:00,
2013-02-23 06:34:00,18.0,14.5,29.57,East,96,2.0,6.0,86,0.00,,OVC200,0.00,0.00,VWS V14.01,2013-02-23 12:34:00,
2013-02-23 06:39:00,17.7,14.2,29.57,East,88,1.0,4.0,86,0.00,,OVC200,0.00,0.00,VWS V14.01,2013-02-23 12:39:00,
2013-02-23 06:44:00,17.5,14.0,29.57,East,90,0.0,4.0,86,0.00,,OVC200,0.00,0.00,VWS V14.01,2013-02-23 12:44:00,
2013-02-23 06:49:00,17.5,14.0,29.57,East,91,1.0,4.0,86,0.00,,OVC200,0.00,0.00,VWS V14.01,2013-02-23 12:49:00,
2013-02-23 06:54:00,17.3,13.8,29.57,East,89,2.0,4.0,86,0.00,,OVC200,0.00,0.00,VWS V14.01,2013-02-23 12:54:00,
2013-02-23 06:59:00,17.3,13.8,29.57,East,89,1.0,4.0,86,0.00,,OVC200,0.00,0.00,VWS V14.01,2013-02-23 12:59:00,
2013-02-23 07:00:00,17.2,13.7,29.57,ENE,78,2.0,5.0,86,0.00,,OVC075,0.00,7.00,VWS V15.00,2013-02-23 13:00:00,
2013-02-23 07:04:00,17.2,13.7,29.57,ENE,78,3.0,5.0,86,0.00,,OVC200,0.00,7.00,VWS V14.01,2013-02-23 13:04:00,
2013-02-23 07:09:00,17.2,13.7,29.57,East,80,0.0,4.0,86,0.00,,OVC200,0.00,9.00,VWS V14.01,2013-02-23 13:09:00,
2013-02-23 07:14:00,17.2,13.7,29.57,East,81,2.0,4.0,86,0.00,,OVC200,0.00,12.00,VWS V14.01,2013-02-23 13:14:00,
2013-02-23 07:19:00,17.3,13.8,29.58,East,82,1.0,4.0,86,0.00,,OVC200,0.00,18.00,VWS V14.01,2013-02-23 13:19:00,
2013-02-23 07:24:00,17.3,13.8,29.58,East,82,0.0,4.0,86,0.00,,OVC200,0.00,26.00,VWS V14.01,2013-02-23 13:24:00,
2013-02-23 07:29:00,17.5,14.0,29.58,East,82,0.0,4.0,86,0.00,,OVC200,0.00,30.00,VWS V14.01,2013-02-23 13:29:00,
2013-02-23 07:30:00,17.7,14.2,29.58,East,82,0.0,4.0,86,0.00,,OVC075,0.00,33.00,VWS V15.00,2013-02-23 13:30:00,
2013-02-23 07:34:00,17.7,14.2,29.58,East,82,0.0,4.0,86,0.00,,OVC200,0.00,33.00,VWS V14.01,2013-02-23 13:34:00,
2013-02-23 07:39:00,17.8,14.3,29.58,East,82,0.0,2.0,86,0.00,,OVC200,0.00,39.00,VWS V14.01,2013-02-23 13:39:00,
2013-02-23 07:44:00,18.0,14.5,29.58,East,83,1.0,3.0,86,0.00,,OVC200,0.00,39.00,VWS V14.01,2013-02-23 13:44:00,
2013-02-23 07:49:00,18.1,14.6,29.58,East,85,3.0,4.0,86,0.00,,OVC200,0.00,49.00,VWS V14.01,2013-02-23 13:49:00,
2013-02-23 07:54:00,18.1,14.6,29.58,East,87,3.0,4.0,86,0.00,,OVC200,0.00,62.00,VWS V14.01,2013-02-23 13:54:00,
2013-02-23 07:59:00,18.3,14.8,29.58,East,87,0.0,4.0,86,0.00,,OVC200,0.00,67.00,VWS V14.01,2013-02-23 13:59:00,
2013-02-23 08:00:00,18.3,14.8,29.58,East,87,0.0,4.0,86,0.00,,OVC075,0.00,76.00,VWS V15.00,2013-02-23 14:00:00,
2013-02-23 08:04:00,18.3,14.8,29.58,East,87,0.0,4.0,86,0.00,,OVC200,0.00,76.00,VWS V14.01,2013-02-23 14:04:00,
2013-02-23 08:09:00,18.3,14.8,29.58,East,84,2.0,4.0,86,0.00,,OVC200,0.00,77.00,VWS V14.01,2013-02-23 14:09:00,
2013-02-23 08:14:00,18.3,14.8,29.58,East,80,2.0,4.0,86,0.00,,OVC200,0.00,76.00,VWS V14.01,2013-02-23 14:14:00,
2013-02-23 08:19:00,18.4,14.9,29.58,East,82,1.0,4.0,86,0.00,,OVC200,0.00,84.00,VWS V14.01,2013-02-23 14:19:00,
2013-02-23 08:24:00,18.6,15.1,29.58,East,81,1.0,4.0,86,0.00,,OVC200,0.00,93.00,VWS V14.01,2013-02-23 14:24:00,
2013-02-23 08:29:00,18.8,15.1,29.58,East,82,2.0,4.0,85,0.00,,OVC200,0.00,100.00,VWS V14.01,2013-02-23 14:29:00,
2013-02-23 08:30:00,18.9,15.1,29.58,East,82,0.0,4.0,85,0.00,,OVC075,0.00,109.00,VWS V15.00,2013-02-23 14:30:00,
2013-02-23 08:34:00,18.9,15.1,29.58,East,82,1.0,4.0,85,0.00,,OVC200,0.00,109.00,VWS V14.01,2013-02-23 14:34:00,
2013-02-23 08:39:00,19.1,15.3,29.58,East,82,0.0,3.0,85,0.00,,OVC200,0.00,116.00,VWS V14.01,2013-02-23 14:39:00,
2013-02-23 08:44:00,19.2,15.4,29.58,ENE,76,0.0,4.0,85,0.00,,OVC200,0.00,130.00,VWS V14.01,2013-02-23 14:44:00,
2013-02-23 08:49:00,19.4,15.6,29.58,ENE,76,0.0,4.0,85,0.00,,OVC200,0.00,130.00,VWS V14.01,2013-02-23 14:49:00,
2013-02-23 08:54:00,19.7,15.9,29.58,ENE,75,2.0,4.0,85,0.00,,OVC200,0.00,104.00,VWS V14.01,2013-02-23 14:54:00,
2013-02-23 08:59:00,19.9,16.1,29.58,ENE,71,0.0,4.0,85,0.00,,OVC200,0.00,118.00,VWS V14.01,2013-02-23 14:59:00,
2013-02-23 09:00:00,20.0,15.9,29.58,ENE,76,1.0,4.0,84,0.00,,OVC075,0.00,162.00,VWS V15.00,2013-02-23 15:00:00,
2013-02-23 09:04:00,20.0,15.9,29.58,ENE,76,1.0,4.0,84,0.00,,OVC200,0.00,162.00,VWS V14.01,2013-02-23 15:04:00,
2013-02-23 09:09:00,20.0,15.9,29.58,ESE,121,0.0,5.0,84,0.00,,OVC200,0.00,178.00,VWS V14.01,2013-02-23 15:09:00,
2013-02-23 09:14:00,20.0,15.9,29.58,ENE,69,2.0,5.0,84,0.00,,OVC200,0.00,190.00,VWS V14.01,2013-02-23 15:14:00,
2013-02-23 09:19:00,20.0,15.9,29.59,ESE,115,4.0,6.0,84,0.00,,OVC200,0.00,160.00,VWS V14.01,2013-02-23 15:19:00,
2013-02-23 09:24:00,20.0,15.9,29.59,SE,127,2.0,10.0,84,0.00,,OVC200,0.00,148.00,VWS V14.01,2013-02-23 15:24:00,
2013-02-23 09:29:00,20.0,15.9,29.59,East,82,1.0,10.0,84,0.00,,OVC200,0.00,153.00,VWS V14.01,2013-02-23 15:29:00,
2013-02-23 09:30:00,19.9,15.6,29.59,SE,125,9.0,10.0,83,0.00,,OVC075,0.00,171.00,VWS V15.00,2013-02-23 15:30:00,
2013-02-23 09:34:00,19.9,15.6,29.59,East,82,2.0,10.0,83,0.00,,OVC200,0.00,171.00,VWS V14.01,2013-02-23 15:34:00,
2013-02-23 09:39:00,19.9,15.6,29.59,ESE,106,0.0,9.0,83,0.00,,OVC200,0.00,181.00,VWS V14.01,2013-02-23 15:39:00,
2013-02-23 09:44:00,20.0,15.7,29.59,ESE,119,2.0,9.0,83,0.00,,OVC200,0.00,167.00,VWS V14.01,2013-02-23 15:44:00,
2013-02-23 09:49:00,20.0,15.7,29.59,ENE,74,1.0,9.0,83,0.00,,OVC200,0.00,174.00,VWS V14.01,2013-02-23 15:49:00,
2013-02-23 09:54:00,19.9,15.3,29.59,ENE,64,0.0,9.0,82,0.00,,OVC200,0.00,185.00,VWS V14.01,2013-02-23 15:54:00,
2013-02-23 09:59:00,19.9,15.3,29.59,ENE,74,1.0,9.0,82,0.00,,OVC200,0.00,188.00,VWS V14.01,2013-02-23 15:59:00,
2013-02-23 10:00:00,19.5,14.6,29.59,ENE,72,0.0,9.0,81,0.00,,OVC075,0.00,199.00,VWS V15.00,2013-02-23 16:00:00,
2013-02-23 10:04:00,19.5,14.6,29.59,ENE,72,1.0,9.0,81,0.00,,OVC200,0.00,199.00,VWS V14.01,2013-02-23 16:04:00,
2013-02-23 10:09:00,19.4,14.5,29.59,ESE,114,4.0,7.0,81,0.00,,OVC200,0.00,232.00,VWS V14.01,2013-02-23 16:09:00,
2013-02-23 10:14:00,19.5,14.6,29.59,East,92,4.0,7.0,81,0.00,,OVC200,0.00,236.00,VWS V14.01,2013-02-23 16:14:00,
2013-02-23 10:19:00,19.7,14.8,29.60,East,90,3.0,7.0,81,0.00,,OVC200,0.00,246.00,VWS V14.01,2013-02-23 16:19:00,
2013-02-23 10:24:00,19.5,14.4,29.60,NE,54,2.0,7.0,80,0.00,,OVC200,0.00,250.00,VWS V14.01,2013-02-23 16:24:00,
2013-02-23 10:29:00,19.5,14.4,29.60,East,79,2.0,7.0,80,0.00,,OVC200,0.00,250.00,VWS V14.01,2013-02-23 16:29:00,
2013-02-23 10:30:00,19.4,14.2,29.60,ENE,69,3.0,7.0,80,0.00,,OVC075,0.00,279.00,VWS V15.00,2013-02-23 16:30:00,
2013-02-23 10:34:00,19.4,14.0,29.60,ENE,61,5.0,7.0,79,0.00,,OVC200,0.00,278.00,VWS V14.01,2013-02-23 16:34:00,
2013-02-23 10:39:00,19.4,14.0,29.60,ESE,109,1.0,6.0,79,0.00,,OVC200,0.00,288.00,VWS V14.01,2013-02-23 16:39:00,
2013-02-23 10:44:00,19.5,14.1,29.60,ESE,105,4.0,6.0,79,0.00,,OVC200,0.00,283.00,VWS V14.01,2013-02-23 16:44:00,
2013-02-23 10:49:00,19.7,14.3,29.60,ESE,123,3.0,7.0,79,0.00,,OVC200,0.00,309.00,VWS V14.01,2013-02-23 16:49:00,
2013-02-23 10:54:00,19.9,14.4,29.60,ESE,102,3.0,8.0,79,0.00,,OVC200,0.00,306.00,VWS V14.01,2013-02-23 16:54:00,
2013-02-23 10:59:00,19.9,14.2,29.60,SE,130,6.0,8.0,78,0.00,,OVC200,0.00,320.00,VWS V14.01,2013-02-23 16:59:00,
2013-02-23 11:00:00,20.0,14.6,29.60,SE,125,1.0,8.0,79,0.00,,OVC075,0.00,339.00,VWS V15.00,2013-02-23 17:00:00,
2013-02-23 11:04:00,20.0,14.6,29.60,SE,126,2.0,8.0,79,0.00,,OVC200,0.00,330.00,VWS V14.01,2013-02-23 17:04:00,
2013-02-23 11:09:00,20.5,14.7,29.60,ESE,117,3.0,5.0,78,0.00,,OVC200,0.00,355.00,VWS V14.01,2013-02-23 17:09:00,
2013-02-23 11:14:00,20.8,14.7,29.60,ESE,112,3.0,7.0,77,0.00,,OVC200,0.00,355.00,VWS V14.01,2013-02-23 17:14:00,
2013-02-23 11:19:00,21.0,14.9,29.59,East,94,2.0,7.0,77,0.00,,OVC200,0.00,359.00,VWS V14.01,2013-02-23 17:19:00,
2013-02-23 11:24:00,21.3,15.2,29.59,East,94,0.0,7.0,77,0.00,,OVC200,0.00,348.00,VWS V14.01,2013-02-23 17:24:00,
2013-02-23 11:29:00,21.4,15.0,29.59,East,84,1.0,7.0,76,0.00,,OVC200,0.00,359.00,VWS V14.01,2013-02-23 17:29:00,
2013-02-23 11:30:00,21.4,15.0,29.60,East,98,1.0,7.0,76,0.00,,OVC075,0.00,320.00,VWS V15.00,2013-02-23 17:30:00,
2013-02-23 11:34:00,21.4,15.0,29.60,ESE,105,2.0,7.0,76,0.00,,OVC200,0.00,332.00,VWS V14.01,2013-02-23 17:34:00,
2013-02-23 11:39:00,21.4,15.3,29.60,SSE,157,6.0,6.0,77,0.00,,OVC200,0.00,339.00,VWS V14.01,2013-02-23 17:39:00,
2013-02-23 11:44:00,21.3,15.2,29.60,ESE,116,1.0,7.0,77,0.00,,OVC200,0.00,396.00,VWS V14.01,2013-02-23 17:44:00,
2013-02-23 11:49:00,21.4,15.3,29.59,SE,132,7.0,11.0,77,0.00,,OVC200,0.00,425.00,VWS V14.01,2013-02-23 17:49:00,
2013-02-23 11:54:00,21.3,15.5,29.59,SE,129,4.0,11.0,78,0.00,,OVC200,0.00,359.00,VWS V14.01,2013-02-23 17:54:00,
2013-02-23 11:59:00,21.3,15.5,29.59,ESE,123,6.0,11.0,78,0.00,,OVC200,0.00,401.00,VWS V14.01,2013-02-23 17:59:00,
2013-02-23 12:00:00,21.3,15.5,29.59,SE,136,9.0,11.0,78,0.00,,OVC075,0.00,410.00,VWS V15.00,2013-02-23 18:00:00,
2013-02-23 12:04:00,21.3,15.5,29.59,SE,135,10.0,11.0,78,0.00,,OVC200,0.00,410.00,VWS V14.01,2013-02-23 18:04:00,
2013-02-23 12:09:00,21.1,15.6,29.59,SE,136,7.0,10.0,79,0.00,,OVC200,0.00,355.00,VWS V14.01,2013-02-23 18:09:00,
2013-02-23 12:14:00,21.3,15.8,29.59,SE,143,5.0,11.0,79,0.00,,OVC200,0.00,329.00,VWS V14.01,2013-02-23 18:14:00,
2013-02-23 12:19:00,21.4,16.2,29.60,SSE,150,8.0,11.0,80,0.00,,OVC200,0.00,329.00,VWS V14.01,2013-02-23 18:19:00,
2013-02-23 12:24:00,21.4,15.9,29.60,SE,130,7.0,11.0,79,0.00,,OVC200,0.00,346.00,VWS V14.01,2013-02-23 18:24:00,
2013-02-23 12:29:00,21.9,16.7,29.60,SE,124,6.0,11.0,80,0.00,,OVC200,0.00,353.00,VWS V14.01,2013-02-23 18:29:00,
2013-02-23 12:30:00,21.9,16.4,29.59,SE,143,6.0,11.0,79,0.00,,OVC075,0.00,302.00,VWS V15.00,2013-02-23 18:30:00,
2013-02-23 12:34:00,21.9,16.4,29.59,SE,141,5.0,11.0,79,0.00,,OVC200,0.00,302.00,VWS V14.01,2013-02-23 18:34:00,
2013-02-23 12:39:00,21.8,16.6,29.59,SE,134,4.0,10.0,80,0.00,,OVC200,0.00,251.00,VWS V14.01,2013-02-23 18:39:00,
2013-02-23 12:44:00,21.9,16.7,29.59,SE,142,5.0,10.0,80,0.00,,OVC200,0.00,248.00,VWS V14.01,2013-02-23 18:44:00,
2013-02-23 12:49:00,21.9,16.7,29.59,SE,128,6.0,10.0,80,0.00,,OVC200,0.00,220.00,VWS V14.01,2013-02-23 18:49:00,
2013-02-23 12:54:00,22.1,17.2,29.59,SE,137,4.0,10.0,81,0.00,,OVC200,0.00,295.00,VWS V14.01,2013-02-23 18:54:00,
2013-02-23 12:59:00,22.2,17.5,29.59,ESE,107,2.0,10.0,82,0.00,,OVC200,0.00,278.00,VWS V14.01,2013-02-23 18:59:00,
2013-02-23 13:00:00,22.5,17.9,29.59,SE,140,5.0,10.0,82,0.00,,OVC075,0.00,339.00,VWS V15.00,2013-02-23 19:00:00,
2013-02-23 13:04:00,22.4,17.8,29.59,SE,140,3.0,10.0,82,0.00,,OVC200,0.00,339.00,VWS V14.01,2013-02-23 19:04:00,
2013-02-23 13:09:00,22.9,18.2,29.59,ESE,119,5.0,10.0,82,0.00,,OVC200,0.00,429.00,VWS V14.01,2013-02-23 19:09:00,
2013-02-23 13:14:00,23.5,18.8,29.59,ESE,122,3.0,10.0,82,0.00,,OVC200,0.00,496.00,VWS V14.01,2013-02-23 19:14:00,
2013-02-23 13:19:00,23.9,18.9,29.59,SE,144,6.0,10.0,81,0.00,,OVC200,0.00,612.00,VWS V14.01,2013-02-23 19:19:00,
2013-02-23 13:24:00,24.4,19.4,29.59,ESE,119,2.0,10.0,81,0.00,,OVC200,0.00,383.00,VWS V14.01,2013-02-23 19:24:00,
2013-02-23 13:29:00,24.8,19.5,29.59,SE,138,5.0,10.0,80,0.00,,OVC200,0.00,424.00,VWS V14.01,2013-02-23 19:29:00,
2013-02-23 13:30:00,24.5,19.2,29.59,SE,134,4.0,10.0,80,0.00,,OVC075,0.00,357.00,VWS V15.00,2013-02-23 19:30:00,
2013-02-23 13:34:00,24.5,19.2,29.59,SE,128,4.0,10.0,80,0.00,,OVC200,0.00,357.00,VWS V14.01,2013-02-23 19:34:00,
2013-02-23 13:39:00,24.4,19.4,29.59,SE,137,1.0,7.0,81,0.00,,OVC200,0.00,448.00,VWS V14.01,2013-02-23 19:39:00,
2013-02-23 13:44:00,24.7,19.7,29.59,SE,133,4.0,7.0,81,0.00,,OVC200,0.00,401.00,VWS V14.01,2013-02-23 19:44:00,
2013-02-23 13:49:00,24.7,19.7,29.59,SE,142,3.0,7.0,81,0.00,,OVC200,0.00,315.00,VWS V14.01,2013-02-23 19:49:00,
2013-02-23 13:54:00,24.8,19.8,29.59,ESE,103,4.0,7.0,81,0.00,,OVC200,0.00,334.00,VWS V14.01,2013-02-23 19:54:00,
2013-02-23 13:59:00,24.7,19.7,29.59,East,94,3.0,7.0,81,0.00,,OVC200,0.00,352.00,VWS V14.01,2013-02-23 19:59:00,
2013-02-23 14:00:00,24.8,19.8,29.59,ENE,74,5.0,7.0,81,0.00,,OVC075,0.00,267.00,VWS V15.00,2013-02-23 20:00:00,
2013-02-23 14:04:00,24.8,19.8,29.59,ENE,63,1.0,7.0,81,0.00,,OVC200,0.00,267.00,VWS V14.01,2013-02-23 20:04:00,
2013-02-23 14:09:00,25.1,20.1,29.59,East,100,3.0,7.0,81,0.00,,OVC200,0.00,346.00,VWS V14.01,2013-02-23 20:09:00,
2013-02-23 14:14:00,25.3,20.0,29.59,East,80,1.0,7.0,80,0.00,,OVC200,0.00,334.00,VWS V14.01,2013-02-23 20:14:00,
2013-02-23 14:19:00,25.1,19.8,29.59,SSE,163,3.0,9.0,80,0.00,,OVC200,0.00,339.00,VWS V14.01,2013-02-23 20:19:00,
2013-02-23 14:24:00,25.3,20.0,29.59,ESE,115,5.0,9.0,80,0.00,,OVC200,0.00,313.00,VWS V14.01,2013-02-23 20:24:00,
2013-02-23 14:29:00,24.8,19.5,29.59,ESE,118,0.0,10.0,80,0.00,,OVC200,0.00,330.00,VWS V14.01,2013-02-23 20:29:00,
2013-02-23 14:30:00,24.8,19.5,29.59,SE,132,3.0,10.0,80,0.00,,OVC075,0.00,429.00,VWS V15.00,2013-02-23 20:30:00,
2013-02-23 14:34:00,24.8,19.5,29.59,SE,132,4.0,10.0,80,0.00,,OVC200,0.00,529.00,VWS V14.01,2013-02-23 20:34:00,
2013-02-23 14:39:00,25.3,20.0,29.59,ESE,108,5.0,6.0,80,0.00,,OVC200,0.00,512.00,VWS V14.01,2013-02-23 20:39:00,
2013-02-23 14:44:00,25.3,20.0,29.59,ENE,66,3.0,7.0,80,0.00,,OVC200,0.00,443.00,VWS V14.01,2013-02-23 20:44:00,
2013-02-23 14:49:00,25.7,20.1,29.59,ENE,75,3.0,7.0,79,0.00,,OVC200,0.00,339.00,VWS V14.01,2013-02-23 20:49:00,
2013-02-23 14:54:00,25.6,19.7,29.59,SSE,152,3.0,7.0,78,0.00,,OVC200,0.00,301.00,VWS V14.01,2013-02-23 20:54:00,
2013-02-23 14:59:00,25.3,19.4,29.59,SE,137,5.0,7.0,78,0.00,,OVC200,0.00,287.00,VWS V14.01,2013-02-23 20:59:00,
2013-02-23 15:00:00,25.1,19.5,29.59,SE,140,4.0,7.0,79,0.00,,OVC075,0.00,294.00,VWS V15.00,2013-02-23 21:00:00,
2013-02-23 15:04:00,25.1,19.5,29.59,SE,136,5.0,7.0,79,0.00,,OVC200,0.00,369.00,VWS V14.01,2013-02-23 21:04:00,
2013-02-23 15:09:00,25.0,19.4,29.59,SE,130,3.0,6.0,79,0.00,,OVC200,0.00,258.00,VWS V14.01,2013-02-23 21:09:00,
2013-02-23 15:14:00,25.0,19.4,29.59,ESE,121,3.0,7.0,79,0.00,,OVC200,0.00,292.00,VWS V14.01,2013-02-23 21:14:00,
2013-02-23 15:19:00,25.0,19.4,29.59,SE,139,3.0,8.0,79,0.00,,OVC200,0.00,214.00,VWS V14.01,2013-02-23 21:19:00,
2013-02-23 15:24:00,25.4,20.1,29.59,SE,136,3.0,8.0,80,0.00,,OVC200,0.00,415.00,VWS V14.01,2013-02-23 21:24:00,
2013-02-23 15:29:00,25.6,19.7,29.59,ESE,117,4.0,8.0,78,0.00,,OVC200,0.00,264.00,VWS V14.01,2013-02-23 21:29:00,
2013-02-23 15:30:00,25.6,19.7,29.59,SE,131,1.0,8.0,78,0.00,,OVC075,0.00,218.00,VWS V15.00,2013-02-23 21:30:00,
2013-02-23 15:34:00,25.6,19.7,29.59,SE,132,0.0,8.0,78,0.00,,OVC200,0.00,229.00,VWS V14.01,2013-02-23 21:34:00,
2013-02-23 15:39:00,25.6,19.7,29.59,SE,128,2.0,5.0,78,0.00,,OVC200,0.00,206.00,VWS V14.01,2013-02-23 21:39:00,
2013-02-23 15:44:00,25.1,19.2,29.59,SE,134,5.0,12.0,78,0.00,,OVC200,0.00,176.00,VWS V14.01,2013-02-23 21:44:00,
2013-02-23 15:49:00,25.0,19.4,29.59,ESE,121,5.0,12.0,79,0.00,,OVC200,0.00,193.00,VWS V14.01,2013-02-23 21:49:00,
2013-02-23 15:54:00,25.0,19.4,29.59,SE,137,4.0,12.0,79,0.00,,OVC200,0.00,204.00,VWS V14.01,2013-02-23 21:54:00,
2013-02-23 15:59:00,25.1,19.5,29.59,SE,124,3.0,12.0,79,0.00,,OVC200,0.00,197.00,VWS V14.01,2013-02-23 21:59:00,
2013-02-23 16:00:00,25.0,19.4,29.59,ESE,123,4.0,12.0,79,0.00,,OVC075,0.00,167.00,VWS V15.00,2013-02-23 22:00:00,
2013-02-23 16:04:00,25.0,19.4,29.59,ESE,122,1.0,12.0,79,0.00,,OVC200,0.00,167.00,VWS V14.01,2013-02-23 22:04:00,
2013-02-23 16:09:00,25.0,19.4,29.59,ESE,107,1.0,6.0,79,0.00,,OVC200,0.00,156.00,VWS V14.01,2013-02-23 22:09:00,
2013-02-23 16:14:00,24.8,19.5,29.59,ESE,121,2.0,6.0,80,0.00,,OVC200,0.00,149.00,VWS V14.01,2013-02-23 22:14:00,
2013-02-23 16:19:00,24.8,19.5,29.59,ESE,121,3.0,6.0,80,0.00,,OVC200,0.00,141.00,VWS V14.01,2013-02-23 22:19:00,
2013-02-23 16:24:00,24.8,19.5,29.59,ESE,119,0.0,6.0,80,0.00,,OVC200,0.00,139.00,VWS V14.01,2013-02-23 22:24:00,
2013-02-23 16:29:00,24.7,19.4,29.59,ESE,121,4.0,6.0,80,0.00,,OVC200,0.00,105.00,VWS V14.01,2013-02-23 22:29:00,
2013-02-23 16:30:00,24.7,19.4,29.60,ESE,119,3.0,6.0,80,0.00,,OVC075,0.00,102.00,VWS V15.00,2013-02-23 22:30:00,
2013-02-23 16:34:00,24.7,19.4,29.60,ESE,118,5.0,6.0,80,0.00,,OVC200,0.00,104.00,VWS V14.01,2013-02-23 22:34:00,
2013-02-23 16:39:00,24.7,19.4,29.60,ESE,119,2.0,5.0,80,0.00,,OVC200,0.00,134.00,VWS V14.01,2013-02-23 22:39:00,
2013-02-23 16:44:00,24.8,19.5,29.60,SE,125,3.0,5.0,80,0.00,,OVC200,0.00,202.00,VWS V14.01,2013-02-23 22:44:00,
2013-02-23 16:49:00,24.8,19.2,29.60,SE,131,5.0,7.0,79,0.00,,OVC200,0.00,179.00,VWS V14.01,2013-02-23 22:49:00,
2013-02-23 16:54:00,24.7,18.8,29.60,SE,128,8.0,8.0,78,0.00,,OVC200,0.00,144.00,VWS V14.01,2013-02-23 22:54:00,
2013-02-23 16:59:00,24.2,18.3,29.60,ESE,111,4.0,8.0,78,0.00,,OVC200,0.00,118.00,VWS V14.01,2013-02-23 22:59:00,
2013-02-23 17:00:00,23.9,17.8,29.60,SE,130,1.0,8.0,77,0.00,,OVC075,0.00,100.00,VWS V15.00,2013-02-23 23:00:00,
2013-02-23 17:04:00,24.1,18.0,29.60,SE,130,4.0,8.0,77,0.00,,OVC200,0.00,104.00,VWS V14.01,2013-02-23 23:04:00,
2013-02-23 17:09:00,23.6,17.5,29.60,SE,126,4.0,6.0,77,0.00,,OVC200,0.00,88.00,VWS V14.01,2013-02-23 23:09:00,
2013-02-23 17:14:00,23.2,17.1,29.60,ESE,123,2.0,6.0,77,0.00,,OVC200,0.00,47.00,VWS V14.01,2013-02-23 23:14:00,
2013-02-23 17:19:00,22.9,17.1,29.61,ESE,121,1.0,6.0,78,0.00,,OVC200,0.00,26.00,VWS V14.01,2013-02-23 23:19:00,
2013-02-23 17:24:00,22.7,16.9,29.61,ESE,111,1.0,7.0,78,0.00,,OVC200,0.00,23.00,VWS V14.01,2013-02-23 23:24:00,
2013-02-23 17:29:00,22.4,16.9,29.61,ESE,112,0.0,7.0,79,0.00,,OVC200,0.00,21.00,VWS V14.01,2013-02-23 23:29:00,
2013-02-23 17:30:00,22.1,16.6,29.61,ESE,113,3.0,7.0,79,0.00,,OVC075,0.00,18.00,VWS V15.00,2013-02-23 23:30:00,
2013-02-23 17:34:00,22.1,16.6,29.61,ESE,113,1.0,7.0,79,0.00,,OVC200,0.00,18.00,VWS V14.01,2013-02-23 23:34:00,
2013-02-23 17:39:00,21.9,16.7,29.61,ESE,113,1.0,3.0,80,0.00,,OVC200,0.00,14.00,VWS V14.01,2013-02-23 23:39:00,
2013-02-23 17:44:00,21.6,16.4,29.61,ESE,113,0.0,4.0,80,0.00,,OVC200,0.00,11.00,VWS V14.01,2013-02-23 23:44:00,
2013-02-23 17:49:00,21.4,16.2,29.61,ESE,113,0.0,4.0,80,0.00,,OVC200,0.00,9.00,VWS V14.01,2013-02-23 23:49:00,
2013-02-23 17:54:00,21.1,16.2,29.61,ESE,113,0.0,4.0,81,0.00,,OVC200,0.00,5.00,VWS V14.01,2013-02-23 23:54:00,
2013-02-23 17:59:00,20.8,15.9,29.61,ESE,113,3.0,4.0,81,0.00,,OVC200,0.00,0.00,VWS V14.01,2013-02-23 23:59:00,
2013-02-23 18:00:00,20.6,16.0,29.62,ESE,114,0.0,5.0,82,0.00,,OVC075,0.00,0.00,VWS V15.00,2013-02-24 00:00:00,
2013-02-23 18:04:00,20.6,16.0,29.62,ESE,114,2.0,5.0,82,0.00,,OVC200,0.00,0.00,VWS V14.01,2013-02-24 00:04:00,
2013-02-23 18:09:00,20.3,15.7,29.62,ESE,115,3.0,5.0,82,0.00,,OVC200,0.00,0.00,VWS V14.01,2013-02-24 00:09:00,
2013-02-23 18:14:00,20.2,15.6,29.62,ESE,115,2.0,5.0,82,0.00,,OVC200,0.00,0.00,VWS V14.01,2013-02-24 00:14:00,
2013-02-23 18:19:00,20.0,15.4,29.62,ESE,115,1.0,5.0,82,0.00,,OVC200,0.00,0.00,VWS V14.01,2013-02-24 00:19:00,
2013-02-23 18:24:00,19.7,15.1,29.62,ESE,115,3.0,5.0,82,0.00,,OVC200,0.00,0.00,VWS V14.01,2013-02-24 00:24:00,
2013-02-23 18:29:00,19.5,14.9,29.62,ESE,115,2.0,5.0,82,0.00,,OVC200,0.00,0.00,VWS V14.01,2013-02-24 00:29:00,
2013-02-23 18:30:00,19.4,14.8,29.62,ESE,115,1.0,5.0,82,0.00,,OVC075,0.00,0.00,VWS V15.00,2013-02-24 00:30:00,
2013-02-23 18:34:00,19.4,14.8,29.62,ESE,115,1.0,5.0,82,0.00,,OVC200,0.00,0.00,VWS V14.01,2013-02-24 00:34:00,
2013-02-23 18:39:00,19.2,14.6,29.62,ESE,115,0.0,2.0,82,0.00,,OVC200,0.00,0.00,VWS V14.01,2013-02-24 00:39:00,
2013-02-23 18:44:00,19.1,14.5,29.62,ESE,115,1.0,3.0,82,0.00,,OVC200,0.00,0.00,VWS V14.01,2013-02-24 00:44:00,
2013-02-23 18:49:00,18.9,14.3,29.63,ESE,115,0.0,3.0,82,0.00,,OVC200,0.00,0.00,VWS V14.01,2013-02-24 00:49:00,
2013-02-23 18:54:00,18.8,14.5,29.63,ESE,115,1.0,3.0,83,0.00,,OVC200,0.00,0.00,VWS V14.01,2013-02-24 00:54:00,
2013-02-23 18:59:00,18.6,14.3,29.63,ESE,115,0.0,3.0,83,0.00,,OVC200,0.00,0.00,VWS V14.01,2013-02-24 00:59:00,
2013-02-23 19:00:00,18.6,14.3,29.64,ESE,115,0.0,3.0,83,0.00,,OVC075,0.00,0.00,VWS V15.00,2013-02-24 01:00:00,
2013-02-23 19:04:00,18.6,14.3,29.64,ESE,115,0.0,3.0,83,0.00,,OVC200,0.00,0.00,VWS V14.01,2013-02-24 01:04:00,
2013-02-23 19:08:00,18.4,14.1,29.64,ESE,115,0.0,2.0,83,0.00,,OVC200,0.00,0.00,VWS V14.01,2013-02-24 01:08:00,
2013-02-23 19:13:00,18.4,14.1,29.64,ESE,115,0.0,2.0,83,0.00,,OVC200,0.00,0.00,VWS V14.01,2013-02-24 01:13:00,
2013-02-23 19:18:00,18.3,14.0,29.64,ESE,115,0.0,2.0,83,0.00,,OVC200,0.00,0.00,VWS V14.01,2013-02-24 01:18:00,
2013-02-23 19:23:00,18.3,14.0,29.64,ESE,115,0.0,2.0,83,0.00,,OVC200,0.00,0.00,VWS V14.01,2013-02-24 01:23:00,
2013-02-23 19:28:00,18.1,13.8,29.64,ESE,115,0.0,2.0,83,0.00,,OVC200,0.00,0.00,VWS V14.01,2013-02-24 01:28:00,
2013-02-23 19:30:00,18.0,13.7,29.64,ESE,115,0.0,2.0,83,0.00,,OVC075,0.00,0.00,VWS V15.00,2013-02-24 01:30:00,
2013-02-23 19:33:00,18.0,13.7,29.64,ESE,115,0.0,2.0,83,0.00,,OVC200,0.00,0.00,VWS V14.01,2013-02-24 01:33:00,
2013-02-23 19:38:00,17.7,13.4,29.64,ESE,115,0.0,0.0,83,0.00,,OVC200,0.00,0.00,VWS V14.01,2013-02-24 01:38:00,
2013-02-23 19:43:00,17.5,13.2,29.64,ESE,115,0.0,1.0,83,0.00,,OVC200,0.00,0.00,VWS V14.01,2013-02-24 01:43:00,
2013-02-23 19:48:00,17.2,12.9,29.64,ESE,115,0.0,1.0,83,0.00,,OVC200,0.00,0.00,VWS V14.01,2013-02-24 01:48:00,
2013-02-23 19:53:00,16.9,12.6,29.64,ESE,115,0.0,1.0,83,0.00,,OVC200,0.00,0.00,VWS V14.01,2013-02-24 01:53:00,
2013-02-23 19:58:00,16.5,12.2,29.64,ESE,115,0.0,1.0,83,0.00,,OVC200,0.00,0.00,VWS V14.01,2013-02-24 01:58:00,
2013-02-23 20:00:00,16.2,11.9,29.64,ESE,115,0.0,1.0,83,0.00,,OVC075,0.00,0.00,VWS V15.00,2013-02-24 02:00:00,
2013-02-23 20:03:00,16.4,12.1,29.64,ESE,115,0.0,1.0,83,0.00,,OVC200,0.00,0.00,VWS V14.01,2013-02-24 02:03:00,
2013-02-23 20:08:00,16.2,12.0,29.64,ESE,115,0.0,0.0,83,0.00,,OVC200,0.00,0.00,VWS V14.01,2013-02-24 02:08:00,
2013-02-23 20:13:00,16.2,12.2,29.64,ESE,115,0.0,0.0,84,0.00,,OVC200,0.00,0.00,VWS V14.01,2013-02-24 02:13:00,
2013-02-23 20:18:00,16.2,12.2,29.64,ESE,115,0.0,0.0,84,0.00,,OVC200,0.00,0.00,VWS V14.01,2013-02-24 02:18:00,
2013-02-23 20:23:00,16.2,12.2,29.64,ESE,115,0.0,0.0,84,0.00,,OVC200,0.00,0.00,VWS V14.01,2013-02-24 02:23:00,
2013-02-23 20:28:00,16.2,12.2,29.64,ESE,115,0.0,0.0,84,0.00,,OVC200,0.00,0.00,VWS V14.01,2013-02-24 02:28:00,
2013-02-23 20:30:00,16.2,12.2,29.64,ESE,115,0.0,0.0,84,0.00,,OVC075,0.00,0.00,VWS V15.00,2013-02-24 02:30:00,
2013-02-23 20:33:00,16.2,12.2,29.64,ESE,115,0.0,0.0,84,0.00,,OVC200,0.00,0.00,VWS V14.01,2013-02-24 02:33:00,
2013-02-23 20:38:00,16.1,12.4,29.64,ESE,115,0.0,0.0,85,0.00,,OVC200,0.00,0.00,VWS V14.01,2013-02-24 02:38:00,
2013-02-23 20:43:00,16.1,12.4,29.64,ESE,115,0.0,0.0,85,0.00,,OVC200,0.00,0.00,VWS V14.01,2013-02-24 02:43:00,
2013-02-23 20:48:00,15.7,11.7,29.65,ESE,115,0.0,1.0,84,0.00,,OVC200,0.00,0.00,VWS V14.01,2013-02-24 02:48:00,
2013-02-23 20:53:00,15.4,11.7,29.65,ESE,115,0.0,1.0,85,0.00,,OVC200,0.00,0.00,VWS V14.01,2013-02-24 02:53:00,
2013-02-23 20:58:00,15.2,11.5,29.65,ESE,115,0.0,1.0,85,0.00,,OVC200,0.00,0.00,VWS V14.01,2013-02-24 02:58:00,
2013-02-23 21:00:00,15.2,11.5,29.65,ESE,115,0.0,1.0,85,0.00,,OVC075,0.00,0.00,VWS V15.00,2013-02-24 03:00:00,
2013-02-23 21:03:00,15.2,11.5,29.65,ESE,115,0.0,1.0,85,0.00,,OVC200,0.00,0.00,VWS V14.01,2013-02-24 03:03:00,
2013-02-23 21:08:00,15.6,11.9,29.65,ESE,115,1.0,1.0,85,0.00,,OVC200,0.00,0.00,VWS V14.01,2013-02-24 03:08:00,
2013-02-23 21:13:00,15.6,11.9,29.65,ESE,115,0.0,2.0,85,0.00,,OVC200,0.00,0.00,VWS V14.01,2013-02-24 03:13:00,
2013-02-23 21:18:00,15.6,11.9,29.66,ESE,115,0.0,2.0,85,0.00,,OVC200,0.00,0.00,VWS V14.01,2013-02-24 03:18:00,
2013-02-23 21:23:00,15.6,11.9,29.66,ESE,115,0.0,2.0,85,0.00,,OVC200,0.00,0.00,VWS V14.01,2013-02-24 03:23:00,
2013-02-23 21:28:00,15.6,11.9,29.66,ESE,115,1.0,2.0,85,0.00,,OVC200,0.00,0.00,VWS V14.01,2013-02-24 03:28:00,
2013-02-23 21:30:00,15.6,11.9,29.66,ESE,115,0.0,2.0,85,0.00,,OVC075,0.00,0.00,VWS V15.00,2013-02-24 03:30:00,
2013-02-23 21:33:00,15.6,11.9,29.66,ESE,115,0.0,2.0,85,0.00,,OVC200,0.00,0.00,VWS V14.01,2013-02-24 03:33:00,
2013-02-23 21:38:00,15.7,12.0,29.66,ESE,111,0.0,3.0,85,0.00,,OVC200,0.00,0.00,VWS V14.01,2013-02-24 03:38:00,
2013-02-23 21:43:00,15.6,11.9,29.66,ESE,107,0.0,3.0,85,0.00,,OVC200,0.00,0.00,VWS V14.01,2013-02-24 03:43:00,
2013-02-23 21:48:00,15.4,11.7,29.66,ESE,107,0.0,3.0,85,0.00,,OVC200,0.00,0.00,VWS V14.01,2013-02-24 03:48:00,
2013-02-23 21:53:00,15.1,11.4,29.66,ESE,107,0.0,3.0,85,0.00,,OVC200,0.00,0.00,VWS V14.01,2013-02-24 03:53:00,
2013-02-23 21:58:00,14.8,11.1,29.66,ESE,107,0.0,3.0,85,0.00,,OVC200,0.00,0.00,VWS V14.01,2013-02-24 03:58:00,
2013-02-23 22:00:00,14.6,10.9,29.66,ESE,104,1.0,3.0,85,0.00,,OVC075,0.00,0.00,VWS V15.00,2013-02-24 04:00:00,
2013-02-23 22:03:00,14.6,10.9,29.66,ESE,104,1.0,3.0,85,0.00,,OVC200,0.00,0.00,VWS V14.01,2013-02-24 04:03:00,
2013-02-23 22:08:00,14.4,10.7,29.66,East,96,0.0,3.0,85,0.00,,OVC200,0.00,0.00,VWS V14.01,2013-02-24 04:08:00,
2013-02-23 22:13:00,14.4,11.0,29.66,East,96,1.0,3.0,86,0.00,,OVC200,0.00,0.00,VWS V14.01,2013-02-24 04:13:00,
2013-02-23 22:18:00,14.6,11.2,29.67,East,94,1.0,3.0,86,0.00,,OVC200,0.00,0.00,VWS V14.01,2013-02-24 04:18:00,
2013-02-23 22:23:00,14.6,11.2,29.67,East,94,1.0,3.0,86,0.00,,OVC200,0.00,0.00,VWS V14.01,2013-02-24 04:23:00,
2013-02-23 22:28:00,14.6,11.2,29.67,East,94,2.0,3.0,86,0.00,,OVC200,0.00,0.00,VWS V14.01,2013-02-24 04:28:00,
2013-02-23 22:30:00,14.4,11.0,29.67,East,94,0.0,4.0,86,0.00,,OVC075,0.00,0.00,VWS V15.00,2013-02-24 04:30:00,
2013-02-23 22:33:00,14.4,11.0,29.67,East,94,1.0,4.0,86,0.00,,OVC200,0.00,0.00,VWS V14.01,2013-02-24 04:33:00,
2013-02-23 22:38:00,14.3,10.9,29.67,East,94,0.0,3.0,86,0.00,,OVC200,0.00,0.00,VWS V14.01,2013-02-24 04:38:00,
2013-02-23 22:43:00,14.0,10.6,29.67,East,94,0.0,3.0,86,0.00,,OVC200,0.00,0.00,VWS V14.01,2013-02-24 04:43:00,
2013-02-23 22:48:00,13.6,9.9,29.67,East,93,0.0,3.0,85,0.00,,OVC200,0.00,0.00,VWS V14.01,2013-02-24 04:48:00,
2013-02-23 22:53:00,13.1,9.4,29.67,East,93,0.0,3.0,85,0.00,,OVC200,0.00,0.00,VWS V14.01,2013-02-24 04:53:00,
2013-02-23 22:58:00,13.1,9.7,29.67,East,94,1.0,3.0,86,0.00,,OVC200,0.00,0.00,VWS V14.01,2013-02-24 04:58:00,
2013-02-23 23:00:00,13.1,9.7,29.67,East,94,1.0,3.0,86,0.00,,OVC200,0.00,0.00,VWS V14.01,2013-02-24 05:00:00,
2013-02-23 23:05:00,13.3,9.9,29.67,East,94,0.0,0.0,86,0.00,,OVC200,0.00,0.00,VWS V14.01,2013-02-24 05:05:00,
2013-02-23 23:10:00,13.5,10.1,29.67,East,94,0.0,0.0,86,0.00,,OVC200,0.00,0.00,VWS V14.01,2013-02-24 05:10:00,
2013-02-23 23:15:00,13.5,10.1,29.67,East,94,1.0,2.0,86,0.00,,OVC200,0.00,0.00,VWS V14.01,2013-02-24 05:15:00,
2013-02-23 23:20:00,13.8,10.4,29.69,East,94,0.0,3.0,86,0.00,,OVC200,0.00,0.00,VWS V14.01,2013-02-24 05:20:00,
2013-02-23 23:24:00,14.0,10.6,29.69,East,94,0.0,3.0,86,0.00,,OVC200,0.00,0.00,VWS V14.01,2013-02-24 05:24:00,
2013-02-23 23:29:00,13.8,10.4,29.69,East,94,0.0,3.0,86,0.00,,OVC200,0.00,0.00,VWS V14.01,2013-02-24 05:29:00,
2013-02-23 23:30:00,13.6,10.2,29.69,East,94,0.0,3.0,86,0.00,,OVC075,0.00,0.00,VWS V15.00,2013-02-24 05:30:00,
2013-02-23 23:34:00,13.6,10.2,29.69,East,94,0.0,0.0,86,0.00,,OVC200,0.00,0.00,VWS V14.01,2013-02-24 05:34:00,
2013-02-23 23:39:00,13.3,9.9,29.69,East,94,0.0,1.0,86,0.00,,OVC200,0.00,0.00,VWS V14.01,2013-02-24 05:39:00,
2013-02-23 23:44:00,13.1,9.7,29.69,East,94,0.0,1.0,86,0.00,,OVC200,0.00,0.00,VWS V14.01,2013-02-24 05:44:00,
2013-02-23 23:49:00,12.8,9.4,29.69,East,94,0.0,1.0,86,0.00,,OVC200,0.00,0.00,VWS V14.01,2013-02-24 05:49:00,
2013-02-23 23:54:00,12.4,9.0,29.69,East,94,0.0,1.0,86,0.00,,OVC200,0.00,0.00,VWS V14.01,2013-02-24 05:54:00,
2013-02-23 23:59:00,12.3,8.9,29.69,East,94,0.0,1.0,86,0.00,,OVC200,0.00,0.00,VWS V14.01,2013-02-24 05:59:00,